Weather History for Elmira, NY

Change the Weather History Date:

Sunday, July 14, 2013

  Actual Average Record
Temperature  
Mean Temperature 76 °F -  
Max Temperature 89 °F 83 °F 96 °F (1936)
Min Temperature 64 °F 56 °F 46 °F (1940)
Cooling Degree Days 12    
Growing Degree Days 26 (Base 50)    
Moisture  
Dew Point 66 °F    
Average Humidity 84    
Maximum Humidity 100    
Minimum Humidity 52    
Precipitation  
Precipitation 0.00 in - - ()
Sea Level Pressure  
Sea Level Pressure 30.29 in    
Wind  
Wind Speed 1 mph (SW)    
Max Wind Speed 9 mph    
Max Gust Speed -    
Visibility 5 miles    
Events Fog    
Averages and records for this station are not official NWS values.
T = Trace of Precipitation, MM = Missing Value Source: NWS Daily Summary

Daily Weather History Graph

Daily Weather History Graph

Search for Another Location

Airport:

Trip Planner

Search our weather history database for the weather conditions in past years. The results will help you decide how hot, cold, wet, or windy it might be!

Date:

Astronomy

Jul. 14, 2013 Rise Set
Actual Time 5:44 AM EDT 8:42 PM EDT
Civil Twilight 5:10 AM EDT 9:15 PM EDT
Nautical Twilight 4:28 AM EDT 9:58 PM EDT
Astronomical Twilight 3:38 AM EDT 10:47 PM EDT
Moon 12:06 PM EDT (7/14) 11:45 PM EDT (7/14)
Length of Visible Light 16h 05m
Length of Day
14h 58m
Waxing Crescent, 35% of the Moon is Illuminated
Jul 14
Waxing Crescent
Jul 15
First Quarter
Jul 22
Full
Jul 29
Last Quarter
Aug 6
New

Hourly Weather History & Observations

Time (EDT) Temp. Heat Index Dew Point Humidity Pressure Visibility Wind Dir Wind Speed Gust Speed Precip Events Conditions
12:02 AM 66.2 °F - 64.4 °F 94% 30.29 in 1.5 mi Calm Calm - N/A   Clear
12:08 AM 66.2 °F - 64.4 °F 94% 30.30 in 0.5 mi Calm Calm - N/A Fog Fog
12:18 AM 64.4 °F - 64.4 °F 100% 30.30 in 0.2 mi Calm Calm - N/A Fog Fog
12:27 AM 66.2 °F - 64.4 °F 94% 30.30 in 0.5 mi Calm Calm - N/A Fog Fog
12:39 AM 64.4 °F - 64.4 °F 100% 30.30 in 0.5 mi Calm Calm - N/A Fog Fog
12:48 AM 64.4 °F - 64.4 °F 100% 30.30 in 2.5 mi Calm Calm - N/A   Overcast
12:53 AM 66.0 °F - 64.0 °F 93% 30.29 in 5.0 mi Calm Calm - N/A   Mostly Cloudy
1:00 AM 64.4 °F - 64.4 °F 100% 30.30 in 1.8 mi Calm Calm - N/A   Overcast
1:10 AM 66.2 °F - 64.4 °F 94% 30.30 in 0.5 mi Calm Calm - N/A Fog Fog
1:41 AM 66.2 °F - 64.4 °F 94% 30.30 in 0.5 mi Calm Calm - N/A Fog Fog
1:53 AM 66.0 °F - 64.9 °F 96% 30.29 in 0.2 mi Calm Calm - N/A Fog Fog
2:01 AM 66.2 °F - 64.4 °F 94% 30.30 in 0.5 mi Calm Calm - N/A Fog Fog
2:06 AM 66.2 °F - 64.4 °F 94% 30.30 in 2.5 mi Calm Calm - N/A   Overcast
2:18 AM 64.4 °F - 62.6 °F 94% 30.30 in 7.0 mi Calm Calm - N/A   Overcast
2:24 AM 66.2 °F - 64.4 °F 94% 30.30 in 1.8 mi Calm Calm - N/A   Overcast
2:31 AM 66.2 °F - 64.4 °F 94% 30.30 in 0.5 mi Calm Calm - N/A Fog Fog
2:45 AM 66.2 °F - 64.4 °F 94% 30.31 in 0.2 mi Calm Calm - N/A Fog Fog
2:53 AM 66.0 °F - 64.9 °F 96% 30.30 in 0.2 mi Calm Calm - N/A Fog Fog
3:11 AM 66.2 °F - 64.4 °F 94% 30.31 in 0.8 mi Calm Calm - N/A   Mist
3:53 AM 66.9 °F - 66.0 °F 97% 30.29 in 0.5 mi ENE 3.5 mph - N/A Fog Fog
4:46 AM 66.2 °F - 64.4 °F 94% 30.31 in 2.0 mi Calm Calm - N/A   Overcast
4:53 AM 66.9 °F - 64.9 °F 93% 30.29 in 4.0 mi Calm Calm - N/A   Overcast
5:20 AM 66.2 °F - 64.4 °F 94% 30.31 in 2.0 mi Calm Calm - N/A   Overcast
5:27 AM 66.2 °F - 64.4 °F 94% 30.32 in 1.2 mi Calm Calm - N/A   Overcast
5:42 AM 66.2 °F - 64.4 °F 94% 30.32 in 0.5 mi Calm Calm - N/A Fog Fog
5:53 AM 66.9 °F - 64.9 °F 93% 30.31 in 0.8 mi Calm Calm - N/A   Overcast
6:53 AM 68.0 °F - 66.0 °F 93% 30.32 in 2.0 mi Calm Calm - N/A   Overcast
7:53 AM 70.0 °F - 66.9 °F 90% 30.33 in 4.0 mi Calm Calm - N/A   Overcast
8:53 AM 73.9 °F - 68.0 °F 82% 30.33 in 10.0 mi Calm Calm - N/A   Overcast
9:49 AM 78.8 °F - 68.0 °F 69% 30.34 in 10.0 mi Calm Calm - N/A   Scattered Clouds
9:53 AM 79.0 °F - 69.1 °F 72% 30.32 in 10.0 mi Calm Calm - N/A   Partly Cloudy
10:53 AM 81.0 °F 83.8 °F 68.0 °F 65% 30.32 in 10.0 mi SW 9.2 mph - N/A   Clear
11:53 AM 82.9 °F 86.5 °F 69.1 °F 63% 30.31 in 10.0 mi SW 6.9 mph - N/A   Clear
12:53 PM 84.9 °F 89.4 °F 70.0 °F 61% 30.29 in 10.0 mi South 9.2 mph - N/A   Partly Cloudy
1:53 PM 87.1 °F 92.0 °F 70.0 °F 57% 30.28 in 10.0 mi Variable 3.5 mph - N/A   Partly Cloudy
2:53 PM 88.0 °F 92.9 °F 70.0 °F 55% 30.27 in 10.0 mi WSW 8.1 mph - N/A   Mostly Cloudy
3:53 PM 88.0 °F 92.1 °F 69.1 °F 53% 30.26 in 10.0 mi SW 9.2 mph - N/A   Clear
4:53 PM 89.1 °F 93.7 °F 69.1 °F 52% 30.25 in 10.0 mi SW 9.2 mph - N/A   Partly Cloudy
5:53 PM 88.0 °F 92.1 °F 69.1 °F 53% 30.24 in 10.0 mi SW 9.2 mph - N/A   Partly Cloudy
6:53 PM 87.1 °F 90.6 °F 68.0 °F 53% 30.23 in 10.0 mi SW 9.2 mph - N/A   Clear
7:53 PM 84.9 °F 88.2 °F 68.0 °F 57% 30.23 in 10.0 mi SW 5.8 mph - N/A   Clear
8:53 PM 79.0 °F - 69.1 °F 72% 30.24 in 10.0 mi Calm Calm - N/A   Clear
9:53 PM 78.1 °F - 68.0 °F 71% 30.25 in 10.0 mi Calm Calm - N/A   Clear
10:53 PM 73.9 °F - 68.0 °F 82% 30.25 in 10.0 mi Calm Calm - N/A   Clear
11:53 PM 71.1 °F - 66.9 °F 87% 30.26 in 10.0 mi Calm Calm - N/A   Clear